sat.trackr.live / text

‹ back to catalog

STARLINK-11462 [DTC]

NORAD 62412 · 2024-249D

PAYLOAD ACTIVE UNKNOWN

§ Identity

Operator
Country
US
Launch date
2024-12-23
Launch site
AFETR
Launch vehicle
Mass (kg)
RCS (m²)

Purposes: comms

External: N2YO · Heavens-Above · Gunter

§ Orbital elements

Epoch: 2026-05-29T03:12:55.725120Z

Period
88.56 min
Inclination
42.9843°
Eccentricity
0.0019292
Mean motion
16.25960581 rev/d
Perigee alt
190.7 km
Apogee alt
216.1 km
Semi-major
6,581.6 km
B*
3.0232e-3
RAAN
32.6918°
Arg perigee
257.4620°
Mean anomaly
102.4109°
Rev number
8,224

§ Raw data

STARLINK-11462 [DTC]1 62412U 24249D   26149.13397830  .10547021  89573-5  30232-2 0  99912 62412  42.9843  32.6918 0019292 257.4620 102.4109 16.25960581 82241

JSON: /api/v1/satellites/62412 · /tle

For live sub-satellite position, see the globe view (requires WebGL).

§ Visibility from observer

Set your observer location to see the next 7 days of passes ≥ 10°. The values pass through the URL so the page stays shareable.

No JS? Fill the form by hand. The geolocation button needs JavaScript.